Geely Xingzuo 06 zu 07 xing

operational
NORAD ID: 65719 Int'l Des: 2025-214 Owner: GEESP Country: CN Constellation: geesatcom
LEOCIRCULAR

About Geely Xingzuo 06 zu 07 xing

Description loading...

Live Position

Loading 3D Globe...

Upcoming Passes

Altitude History

Altitude vs Time

uPlot chart will show altitude changes over time

Two-Line Element Set

1 65719U 25214H 26102.45807725 .00001363 00000-0 19268-3 0 9993
2 65719 49.9802 252.4572 0009757 341.5708 18.4875 14.83154725 29762
Epoch: Apr 12, 2026 • Age: 9 hours

Current Status

Altitude 633.9 km
Velocity 7.54 km/s
Sub-Earth Point -38.67°S, 30.37°W
Launch Date Sep 24, 2025
Age 0.5 years
Type other

Technical Details

Classification Payload
Mass 130.00 kg
Dry Mass 130.00 kg
Total Mass 130.00 kg
Length 1.00 m
Diameter 0.50 m
Span 2.00 m
Shape Box + 2 pan
Manufacturer GWCG
Bus Type GPS100
Phase Status In Orbit
Owner/State GEESP/CN

Large Constellations

Loading constellations...